Regional Weather Roundup
Issued by NWS State College, PA

Home | Current Version | Previous Version | Text Only | Print | Product List | Glossary On
Versions: 1 2 3 4 5 6 7 8 9 10 11 12 13 14 15 16 17 18 19 20 21 22 23 24 25 26 27 28 29 30 31 32 33 34 35 36 37 38 39 40 41 42 43 44 45 46 47 48 49 50
000
ASUS41 KCTP 311710
RWRCTP

REGIONAL WEATHER ROUNDUP
NATIONAL WEATHER SERVICE STATE COLLEGE PA
100 PM EDT FRI OCT 31 2014

Note: "fair" indicates few or no clouds below 12,000 feet with no
significant weather and/or obstructions to visibility.

* = STATION THAT DOES NOT REPORT PRECIPITATION /E.G. RAIN...SNOW...ETC/
    THUNDER OR FOG.

PAZ002>004-007>009-013>016-020>023-029>032-311800-
WESTERN PENNSYLVANIA

CITY           SKY/WX    TMP DP  RH WIND       PRES   REMARKS
ERIE           CLOUDY    50  35  56 SW8       29.89F
MEADVILLE      LGT RAIN  45  37  73 S6        29.88F
FRANKLIN*      CLOUDY    45  34  65 S7        29.90F
NEW CASTLE       N/A     46  39  76 W8        29.92F
BEAVER COUNTY  DRIZZLE   43  39  87 CALM      29.91F
BUTLER*        CLOUDY    45  36  70 S5        29.92F
PITTSBURGH INT LGT RAIN  44  38  79 W5        29.90F
PITTSBURGH     LGT RAIN  46  33  60 W7        29.89F
INDIANA*       CLOUDY    46  37  71 CALM      29.93F
LATROBE        CLOUDY    46  37  71 W7        29.92F
WASHINGTON CO* CLOUDY    45  37  76 W5        29.91F
$$

PAZ004>006-010>012-017>019-024>028-033>037-041-042-045-046-049>053-311800-
CENTRAL PENNSYLVANIA

CITY           SKY/WX    TMP DP  RH WIND       PRES   REMARKS
BRADFORD       CLOUDY    42  36  79 SE5       29.89F
DUBOIS         CLOUDY    44  36  73 VRB5      29.88F
CLEARFIELD     CLOUDY    44  36  73 NE5       29.91F
JOHNSTOWN      CLOUDY    42  33  70 SE5       29.87F
ALTOONA        CLOUDY    46  38  73 SE7       29.91F
STATE COLLEGE  CLOUDY    45  36  70 VRB5      29.92F
WILLIAMSPORT   CLOUDY    50  34  54 CALM      29.94F
SELINSGROVE    CLOUDY    49  36  61 SW5       29.95F
FT INDIANTOWN  CLOUDY    49  33  53 VRB2      29.95F HAZE
CAPITAL CITY   CLOUDY    51  35  54 E5        29.95F
HARRISBURG     CLOUDY    50  35  56 CALM      29.94F
YORK           CLOUDY    50  35  56 E8        29.94F
$$

PAZ038>040-043-044-047-048-054-055-060>062-067>071-311800-
EASTERN PENNSYLVANIA

CITY           SKY/WX    TMP DP  RH WIND       PRES   REMARKS
SCRANTON       SUNNY     52  30  43 N5        29.92F
MOUNT POCONO   MOSUNNY   45  31  58 E8        29.92F
ALLENTOWN      MOSUNNY   51  34  52 E6        29.96F
QUAKERTOWN*    PTSUNNY   48  37  66 N6        29.95F
READING        SUNNY     53  33  46 VRB7      29.94F
LANCASTER        N/A     53  33  46 MISG      29.94F
COATESVILLE    MOSUNNY   50  36  57 NE5       29.94F
POTTSTOWN      PTSUNNY   51  36  56 VRB3      29.95F
BLUE BELL      CLOUDY    50  36  57 CALM      29.94F
DOYLESTOWN     CLOUDY    49  37  63 VRB5      29.94F
WILLOW GROVE   NOT AVBL
NORTH PHILA    CLOUDY    52  35  52 N7        29.97F
PHILADELPHIA   CLOUDY    51  36  56 N9        29.95F
$$



USA.gov is the U.S. government's official web portal to all federal, state and local government web resources and services.